Location: Rancho Del Sol Observatory
(38.7214°N, 120.6350°W)
Time: 13:30:02
(UTC-07:00)

Daily predictions for brighter satellites

Satellite Brightness Start Highest point End
(mag) Time Altitude Azimuth Time Altitude Azimuth Time Altitude Azimuth
Cosmos 1802 Rocket 4.1 20:36:26 10° S 20:42:45 88° E 20:49:10 10° N
Cosmos 1980 Rocket 2.4 20:37:20 10° NNW 20:42:57 60° ENE 20:48:32 10° SE
Cosmos 1939 Rocket 3.0 20:39:43 10° SSE 20:43:47 70° ENE 20:47:55 10° N
Envisat 3.6 20:38:56 10° S 20:43:57 61° W 20:48:59 10° NNW
ERS-2 2.2 20:45:05 10° SSE 20:48:44 66° ENE 20:52:25 10° N
Cosmos 1743 4.3 20:47:05 10° NNE 20:49:50 19° ENE 20:52:34 10° ESE
ISS -3.7 20:48:03 10° SW 20:51:19 80° NW 20:54:36 10° NE
Okean 3 3.5 20:49:29 10° S 20:53:46 81° E 20:58:04 10° N
Cosmos 1833 Rocket 4.5 20:49:23 10° SW 20:54:34 37° WNW 20:59:47 10° N
Thor Agena Rocket 3.7 20:50:10 10° NNE 20:55:28 86° WNW 21:00:41 10° SSW
Resurs 01 Rocket 1.6 20:51:10 10° SSE 20:55:33 72° ENE 20:59:57 10° N
CENTAUR R/B 3.6 20:53:04 10° SSE 20:57:04 19° ESE 21:01:22 10° ENE
Meteor 1-18 Rocket 4.4 20:52:04 10° S 20:57:48 65° E 21:03:38 10° NNE
Abrixas rocket 2.2 20:57:15 10° SW 21:00:24 52° SE 21:03:32 10° ENE
Cosmos 2233 Rocket 4.3 20:54:39 10° SSE 21:00:25 45° E 21:06:16 10° NNE
Cosmos 304 Rocket 3.7 20:56:35 10° S 21:01:22 70° ESE 21:06:10 10° NNE
BREEZE-M DEB (TANK) 2.6 21:01:45 10° NW 21:03:54 48° NE 21:07:05 12° ESE
ATLAS 3B R/B 3.0 21:01:15 10° SW 21:08:30 77° NW 21:15:27 10° NNE
Cosmos 2084 4.0 21:07:40 10° S 21:11:39 34° ESE 21:15:26 10° NE
Tiangong 2 1.0 21:11:29 10° WSW 21:14:38 86° SSE 21:17:48 10° ENE
GPS 2-04 Rocket1 3.7 21:12:33 10° W 21:16:26 36° SSW 21:19:17 16° SE
SAR-Lupe-3 4.5 21:13:09 10° NNE 21:16:46 78° ESE 21:20:20 10° S
Cosmos 1300 Rocket 4.4 21:12:40 10° NNW 21:16:55 52° W 21:21:06 10° S
USA 186 4.0 21:19:19 10° SSW 21:21:57 25° W 21:24:44 10° NW
Spot 2 Rocket 3.6 21:17:48 10° SSE 21:22:50 82° WSW 21:27:54 10° NNW
Cosmos 468 Rocket 3.9 21:22:59 10° S 21:28:15 75° ESE 21:33:30 10° NNE
Cosmos 1937 Rocket 4.1 21:25:31 10° N 21:30:21 39° ENE 21:33:29 20° SE
NOAA 11 4.4 21:25:11 10° S 21:30:39 72° WSW 21:36:07 10° NNW
Cosmos 2322 Rocket 2.6 21:27:45 10° NNW 21:33:12 48° ENE 21:36:49 20° SE
Timation 2 Rocket 3.8 21:27:27 10° SSW 21:33:24 79° ESE 21:39:27 10° NNE
Cosmos 1763 Rocket 3.6 21:32:29 10° S 21:37:40 56° ESE 21:42:50 10° NNE
ARGOS 3.2 21:34:33 18° SSE 21:38:35 63° ENE 21:43:55 10° N
ATLAS CENTAUR R/B 2.9 21:35:24 10° NW 21:39:38 37° WSW 21:43:38 12° S
Helios 1B rocket 4.2 21:37:21 10° NE 21:39:43 16° E 21:39:43 16° E
Cosmos 1975 3.0 21:36:50 10° NNW 21:40:52 73° W 21:44:05 15° S
SL-16 R/B 2.4 21:35:39 10° NNW 21:41:17 60° ENE 21:44:49 23° SE
Cosmos 841 Rocket 3.9 21:37:35 15° SSE 21:41:31 41° ESE 21:46:25 10° NNE
Shenzhou-11 Module 3.3 21:44:20 10° WNW 21:47:07 35° N 21:49:01 17° ENE
ATLAS CENTAUR R/B 4.2 21:41:36 10° SW 21:47:43 86° NW 22:07:07 10° NE
USA 245 3.9 21:47:05 28° E 21:48:00 33° ENE 21:51:36 10° N
Cosmos 1464 Rocket 4.4 21:44:37 19° SSE 21:48:53 47° E 21:54:57 10° NNE
Atlas Centaur 2 2.6 21:48:26 10° WSW 21:51:07 19° S 21:51:07 19° S
Cosmos 858 Rocket 4.5 21:47:27 10° NNW 21:52:40 74° ENE 21:55:33 27° SSE
Cosmos 1356 3.9 22:00:34 40° E 22:00:39 40° E 22:03:56 10° NNE
SPOT 1/Viking Rocket 4.2 21:59:44 27° ESE 22:01:49 39° ENE 22:06:36 10° N
H-2A R/B 1.9 22:02:53 28° SSE 22:05:34 89° ENE 22:10:37 10° NNW
Cosmos 1455 Rocket 3.1 22:01:31 10° N 22:05:51 64° E 22:07:19 39° SSE
ERS-1 Rocket 2.9 22:07:52 32° SSE 22:10:15 80° ENE 22:15:17 10° N
SPOT 5 3.1 22:10:13 37° ESE 22:11:23 47° ENE 22:15:42 10° N
Cosmos 1898 Rocket 3.9 22:06:17 10° NNW 22:11:30 60° WSW 22:14:33 25° S
MetOp-B 4.2 22:08:23 25° S 22:11:34 77° WSW 22:16:56 10° NNW
CSL-04 DEB 4.5 22:10:05 35° S 22:11:49 78° WSW 22:15:58 10° NNW
Cosmos 1242 Rocket 3.7 22:08:50 10° NNW 22:12:17 39° W 22:14:01 23° SSW
USA 234 4.3 22:06:26 10° NE 22:12:39 47° NW 22:18:51 10° WSW
SL-08 RB Rocket 3.8 22:11:31 31° S 22:13:39 74° WSW 22:18:13 10° NNW
Cosmos 1975 Rocket 4.3 22:10:10 10° SSW 22:14:14 40° W 22:18:19 10° N
Cosmos 1814 Rocket 4.3 22:10:39 10° SSW 22:15:51 70° WNW 22:21:10 10° NNE
DMSP B5D2-2 4.0 22:11:19 10° NNE 22:16:36 69° ESE 22:19:10 31° S
CZ-4C R/B 4.2 22:17:48 10° NNW 22:23:52 29° NE 22:28:51 16° E
Cosmos 2360 Rocket 2.5 22:18:45 10° NNW 22:24:17 55° ENE 22:26:09 38° ESE
BREEZE M DEB (TANK) 2.5 22:17:21 10° NW 22:25:41 90° W 22:26:29 56° SE
Terra 2.7 22:25:19 32° E 22:26:07 34° ENE 22:30:24 10° N
Cosmos 1980 Rocket 4.5 22:22:48 10° WNW 22:26:22 17° W 22:29:55 10° SW
Lacrosse 5 rocket 2.9 22:23:55 10° NNW 22:27:35 27° NE 22:28:53 23° ENE
ISS -0.6 22:26:13 10° WNW 22:28:14 15° NNW 22:30:15 10° NNE
Cosmos 2219 Rocket 4.0 22:25:25 10° N 22:29:15 18° NE 22:31:19 15° E
Cosmos 1544 Rocket 3.9 22:28:31 10° NNW 22:32:54 61° W 22:34:18 40° SSW
Meteor 1-23 Rocket 4.1 22:31:09 33° S 22:33:45 86° E 22:39:21 10° N
CZ-2C R/B 3.9 22:29:22 10° NE 22:33:39 25° E 22:33:39 25° E
Helios 1A 2.9 22:36:12 63° S 22:36:49 80° W 22:41:00 10° NNW
Abrixas rocket 4.4 22:34:11 10° W 22:36:58 26° NNW 22:39:44 10° NE
Cosmos 836 Rocket 4.5 22:38:05 53° SE 22:38:54 60° ESE 22:44:01 10° NNE
Aureole 2 Rocket 3.5 22:39:12 10° NNW 22:41:12 36° NW 22:41:12 36° NW
Cosmos 2150 Rocket 4.3 22:38:24 10° NNW 22:43:43 62° WSW 22:45:19 42° SSW
Cosmos 2333 Rocket 3.8 22:39:29 10° N 22:43:49 22° NE 22:45:38 19° E
CENTAUR R/B 2.8 22:40:58 10° SW 22:46:49 65° NW 22:53:37 10° NNE
COSMOS 2428 3.6 22:42:08 10° N 22:47:19 35° ENE 22:48:38 31° E
Cosmos 1536 Rocket 4.0 22:46:13 42° SW 22:47:29 60° W 22:51:53 10° N
SJ 16-02 1.4 22:44:37 10° N 22:49:02 62° ENE 22:49:06 62° ENE
Tiangong 2 2.6 22:48:34 10° WNW 22:51:07 36° NNW 22:51:07 36° NNW
Cosmos 1340 Rocket 4.4 22:49:39 21° WSW 22:51:36 32° WNW 22:55:17 10° N
Spot 1 3.9 22:53:40 78° NE 22:53:40 78° NE 22:57:37 10° N
Nimbus 7 Rocket 4.4 22:50:48 10° NNE 22:56:39 64° ESE 22:57:42 55° SSE
Cosmos 1092 Rocket 4.2 22:52:08 10° N 22:58:25 58° E 22:59:40 49° ESE
Okean 2 3.4 23:00:24 76° NW 23:00:24 76° NW 23:04:27 10° N
Nadezhda 4 Rocket 3.9 22:56:38 10° N 23:02:58 88° W 23:04:41 52° S
Cosmos 2297 Rocket 4.2 23:11:57 15° ENE 23:11:57 15° ENE 23:13:31 10° ENE
Cosmos 1356 Rocket 3.7 23:11:49 70° NNW 23:11:49 70° NNW 23:15:45 10° N
Cosmos 2322 3.6 23:06:43 10° NNW 23:12:29 82° WSW 23:13:13 68° S
Cosmos 2227 Rocket 4.0 23:14:49 18° ENE 23:14:49 18° ENE 23:17:04 10° NE
CZ-2C R/B 3.0 23:12:46 70° ESE 23:13:14 76° ENE 23:18:46 10° N
Helios 1B rocket 3.6 23:11:29 10° N 23:15:19 37° WNW 23:16:05 34° W
Cosmos 540 Rocket 4.4 23:14:12 25° SW 23:16:47 44° WNW 23:21:44 10° N
Cosmos 2322 Rocket 3.9 23:12:41 10° NW 23:16:49 21° W 23:18:39 18° SW
CARTOSAT-1 4.1 23:19:49 52° W 23:19:49 52° W 23:23:47 10° NNW
IGS 5A 4.2 23:20:22 48° WNW 23:20:22 48° WNW 23:24:00 10° NNW
Cosmos 2237 Rocket 3.8 23:16:18 10° N 23:20:50 24° NE 23:22:05 22° ENE
Cosmos 1066 Rocket 4.0 23:21:11 72° SW 23:21:43 81° W 23:27:10 10° N
SL-16 R/B 4.2 23:21:13 10° WNW 23:24:48 17° W 23:26:42 15° WSW
COSMOS 2455 4.3 23:27:16 22° ENE 23:27:16 22° ENE 23:30:15 10° NE
Cosmos 2026 Rocket 3.9 23:24:09 10° N 23:30:17 64° E 23:30:44 62° ESE
Cosmos 2279 Rocket 4.2 23:31:34 52° E 23:31:40 52° E 23:37:40 10° NNE
Meteor 1-22 Rocket 4.2 23:26:29 10° N 23:31:37 64° ENE 23:31:37 64° ENE
Cosmos 2142 Rocket 4.3 23:37:28 75° SSE 23:38:00 84° E 23:44:13 10° N
Cosmos 1025 Rocket 4.3 23:39:29 34° W 23:39:33 34° WNW 23:43:33 10° N
Cosmos 1606 Rocket 4.2 23:36:08 10° N 23:39:36 54° N 23:39:36 54° N
Cosmos 2219 3.1 23:40:36 85° SW 23:40:47 88° WNW 23:46:35 10° NNE
NOSS 0 Rocket 4.4 23:36:11 10° NNW 23:42:15 50° ENE 23:43:01 47° E
Cosmos 1627 Rocket 4.3 23:46:47 10° N 23:52:57 76° W 23:53:20 73° SW
